When you browse on this site, cookies collect data to enhance your experience and personalize the content and advertising you see.
Visit our Privacy Policy to learn more. By continuing to use the site, you agree to this use of cookies and data.
  • In Österreich
  • Länderverzeichnis
  • Für 7 Tage
  • Wassertemperatur
  • Satellitenkarten
  • Wetterkarte
  • News
  • Widgets
  • user-avatar
    Anmelden

    Stündliche Wetter Escaldes-Engordany

    Heute, 26 März, Dienstag

    Zeit Temperatur Niederschläge Wind Luftdruck Luftfeuchtigkeit
    00:00 -1°C° 0 mm 4 m/S 639 mmHg 83%
    01:00 -2°C° 0 mm 4 m/S 639 mmHg 83%
    02:00 -2°C° 0 mm 4 m/S 639 mmHg 83%
    03:00 -3°C° 0 mm 4 m/S 639 mmHg 82%
    04:00 -2°C° 0 mm 3 m/S 639 mmHg 80%
    05:00 -4°C° 0 mm 3 m/S 639 mmHg 78%
    06:00 -5°C° 0 mm 3 m/S 639 mmHg 75%
    07:00 -2°C° 0 mm 3 m/S 640 mmHg 59%
    08:00 0°C° 0 mm 4 m/S 640 mmHg 42%
    09:00 +3°C° 0 mm 4 m/S 641 mmHg 26%
    10:00 +4°C° 0 mm 4 m/S 641 mmHg 24%
    11:00 +6°C° 0 mm 4 m/S 642 mmHg 21%
    12:00 +7°C° 0 mm 4 m/S 642 mmHg 19%
    13:00 +7°C° 0 mm 4 m/S 642 mmHg 22%
    14:00 +6°C° 0 mm 4 m/S 641 mmHg 24%
    15:00 +6°C° 0 mm 4 m/S 641 mmHg 27%
    16:00 +4°C° 0 mm 4 m/S 640 mmHg 35%
    17:00 +2°C° 0 mm 3 m/S 640 mmHg 44%
    18:00 +1°C° 0 mm 3 m/S 639 mmHg 53%
    19:00 +1°C° 0 mm 2 m/S 640 mmHg 58%
    20:00 -1°C° 0 mm 2 m/S 640 mmHg 64%
    21:00 -2°C° 0 mm 2 m/S 640 mmHg 69%
    22:00 -2°C° 0 mm 2 m/S 640 mmHg 68%
    23:00 -2°C° 0 mm 2 m/S 641 mmHg 67%

    Morgen, 27 März, Mittwoch

    Zeit Temperatur Niederschläge Wind Luftdruck Luftfeuchtigkeit
    00:00 -2°C° 0 mm 2 m/S 641 mmHg 66%
    01:00 -2°C° 0 mm 2 m/S 640 mmHg 64%
    02:00 -2°C° 0 mm 2 m/S 640 mmHg 62%
    03:00 -2°C° 0 mm 2 m/S 640 mmHg 60%
    04:00 -2°C° 0 mm 2 m/S 640 mmHg 55%
    05:00 -2°C° 0 mm 2 m/S 641 mmHg 49%
    06:00 -3°C° 0 mm 2 m/S 641 mmHg 43%
    07:00 +1°C° 0 mm 2 m/S 642 mmHg 36%
    08:00 +4°C° 0 mm 2 m/S 643 mmHg 29%
    09:00 +7°C° 0 mm 2 m/S 644 mmHg 21%
    10:00 +8°C° 0 mm 2 m/S 644 mmHg 22%
    11:00 +10°C° 0 mm 2 m/S 644 mmHg 23%
    12:00 +12°C° 0 mm 2 m/S 645 mmHg 23%
    13:00 +12°C° 0 mm 2 m/S 644 mmHg 26%
    14:00 +10°C° 0 mm 2 m/S 644 mmHg 29%
    15:00 +10°C° 0 mm 2 m/S 644 mmHg 31%
    16:00 +8°C° 0 mm 2 m/S 643 mmHg 41%
    17:00 +6°C° 0 mm 2 m/S 643 mmHg 50%
    18:00 +4°C° 0 mm 2 m/S 642 mmHg 60%
    19:00 +3°C° 0 mm 2 m/S 642 mmHg 65%
    20:00 +2°C° 0 mm 2 m/S 642 mmHg 71%
    21:00 -1°C° 0 mm 2 m/S 643 mmHg 77%
    22:00 -1°C° 0 mm 2 m/S 643 mmHg 76%
    23:00 -1°C° 0 mm 2 m/S 643 mmHg 76%

    übermorgen, 28 März, Donnerstag

    Zeit Temperatur Niederschläge Wind Luftdruck Luftfeuchtigkeit
    00:00 +1°C° 0 mm 1 m/S 643 mmHg 75%
    01:00 +1°C° 0 mm 1 m/S 643 mmHg 77%
    02:00 +1°C° 0 mm 1 m/S 643 mmHg 79%
    03:00 +1°C° 0 mm 1 m/S 643 mmHg 82%
    04:00 +1°C° 0 mm 1 m/S 643 mmHg 81%
    05:00 +1°C° 0 mm 1 m/S 643 mmHg 81%
    06:00 +1°C° 0 mm 1 m/S 643 mmHg 80%
    07:00 +4°C° 0 mm 1 m/S 644 mmHg 68%
    08:00 +6°C° 0 mm 1 m/S 645 mmHg 56%
    09:00 +9°C° 0 mm 1 m/S 646 mmHg 44%
    10:00 +10°C° 0 mm 1 m/S 646 mmHg 41%
    11:00 +10°C° 0 mm 2 m/S 646 mmHg 39%
    12:00 +13°C° 0 mm 2 m/S 647 mmHg 36%
    13:00 +12°C° 0 mm 2 m/S 646 mmHg 39%
    14:00 +12°C° 0 mm 2 m/S 646 mmHg 42%
    15:00 +12°C° 0 mm 1 m/S 645 mmHg 45%
    16:00 +10°C° 0 mm 1 m/S 645 mmHg 54%
    17:00 +8°C° 0 mm 1 m/S 644 mmHg 63%
    18:00 +6°C° 0 mm 1 m/S 643 mmHg 73%
    19:00 +6°C° 0 mm 1 m/S 644 mmHg 76%
    20:00 +5°C° 0 mm 1 m/S 644 mmHg 80%
    21:00 +4°C° 0 mm 1 m/S 644 mmHg 83%
    22:00 +4°C° 0 mm 1 m/S 644 mmHg 85%
    23:00 +4°C° 0 mm 1 m/S 644 mmHg 88%

    29 März, Freitag

    Zeit Temperatur Niederschläge Wind Luftdruck Luftfeuchtigkeit
    00:00 +3°C° 0 mm 1 m/S 644 mmHg 90%
    01:00 +3°C° 0 mm 1 m/S 643 mmHg 90%
    02:00 +3°C° 0 mm 1 m/S 643 mmHg 91%
    03:00 +2°C° 0 mm 1 m/S 643 mmHg 92%
    04:00 +2°C° 0 mm 1 m/S 643 mmHg 91%
    05:00 +2°C° 0 mm 1 m/S 643 mmHg 91%
    06:00 +2°C° 0 mm 1 m/S 643 mmHg 91%
    07:00 +3°C° 0 mm 2 m/S 644 mmHg 77%
    08:00 +5°C° 0 mm 2 m/S 645 mmHg 63%
    09:00 +7°C° 0 mm 2 m/S 645 mmHg 49%
    10:00 +8°C° 0 mm 2 m/S 645 mmHg 45%
    11:00 +9°C° 0 mm 2 m/S 645 mmHg 42%
    12:00 +10°C° 0 mm 2 m/S 645 mmHg 38%
    13:00 +10°C° 0.1 mm 2 m/S 645 mmHg 40%
    14:00 +9°C° 0.1 mm 2 m/S 645 mmHg 42%
    15:00 +9°C° 0.1 mm 2 m/S 644 mmHg 43%
    16:00 +9°C° 0.1 mm 1 m/S 644 mmHg 49%
    17:00 +8°C° 0.1 mm 1 m/S 643 mmHg 56%
    18:00 +6°C° 0.1 mm 1 m/S 643 mmHg 62%
    19:00 +5°C° 0 mm 1 m/S 643 mmHg 68%
    20:00 +4°C° 0 mm 1 m/S 643 mmHg 73%
    21:00 +3°C° 0 mm 1 m/S 643 mmHg 79%
    22:00 +2°C° 0 mm 1 m/S 642 mmHg 81%
    23:00 +1°C° 0 mm 2 m/S 642 mmHg 83%

    30 März, Samstag

    Zeit Temperatur Niederschläge Wind Luftdruck Luftfeuchtigkeit
    00:00 -1°C° 0 mm 2 m/S 642 mmHg 85%
    01:00 -1°C° 0 mm 2 m/S 641 mmHg 81%
    02:00 -2°C° 0 mm 2 m/S 641 mmHg 78%
    03:00 -2°C° 0 mm 2 m/S 640 mmHg 74%
    04:00 -2°C° 0 mm 2 m/S 640 mmHg 69%
    05:00 -2°C° 0 mm 2 m/S 640 mmHg 64%
    06:00 -2°C° 0 mm 2 m/S 640 mmHg 59%
    07:00 +2°C° 0 mm 2 m/S 641 mmHg 53%
    08:00 +4°C° 0 mm 2 m/S 642 mmHg 48%
    09:00 +7°C° 0 mm 2 m/S 643 mmHg 42%
    10:00 +8°C° 0 mm 2 m/S 643 mmHg 41%
    11:00 +9°C° 0 mm 2 m/S 643 mmHg 40%
    12:00 +10°C° 0 mm 2 m/S 643 mmHg 39%
    13:00 +10°C° 0 mm 2 m/S 642 mmHg 41%
    14:00 +10°C° 0 mm 2 m/S 642 mmHg 42%
    15:00 +10°C° 0 mm 2 m/S 641 mmHg 44%
    16:00 +8°C° 0 mm 2 m/S 641 mmHg 53%
    17:00 +7°C° 0 mm 2 m/S 640 mmHg 61%
    18:00 +5°C° 0 mm 2 m/S 640 mmHg 69%
    19:00 +5°C° 0 mm 1 m/S 640 mmHg 77%
    20:00 +4°C° 0 mm 1 m/S 639 mmHg 84%
    21:00 +3°C° 0 mm 1 m/S 639 mmHg 92%
    22:00 +3°C° 0 mm 1 m/S 639 mmHg 90%
    23:00 +3°C° 0 mm 1 m/S 639 mmHg 89%

    31 März, Sonntag

    Zeit Temperatur Niederschläge Wind Luftdruck Luftfeuchtigkeit
    00:00 +2°C° 0 mm 1 m/S 638 mmHg 88%
    01:00 +2°C° 0 mm 1 m/S 638 mmHg 84%
    02:00 +2°C° 0 mm 1 m/S 638 mmHg 80%
    03:00 +1°C° 0 mm 0 m/S 637 mmHg 76%
    04:00 +2°C° 0 mm 1 m/S 637 mmHg 75%
    05:00 +2°C° 0 mm 1 m/S 637 mmHg 74%
    06:00 +2°C° 0 mm 1 m/S 637 mmHg 73%
    07:00 +5°C° 0 mm 1 m/S 638 mmHg 64%
    08:00 +8°C° 0 mm 1 m/S 639 mmHg 56%
    09:00 +10°C° 0 mm 1 m/S 640 mmHg 48%
    10:00 +11°C° 0 mm 1 m/S 640 mmHg 48%
    11:00 +11°C° 0 mm 1 m/S 640 mmHg 49%
    12:00 +11°C° 0 mm 1 m/S 640 mmHg 49%
    13:00 +11°C° 0.3 mm 1 m/S 639 mmHg 55%
    14:00 +10°C° 0.3 mm 1 m/S 638 mmHg 61%
    15:00 +9°C° 0.3 mm 1 m/S 638 mmHg 67%
    16:00 +8°C° 0.9 mm 1 m/S 637 mmHg 75%
    17:00 +7°C° 0.9 mm 1 m/S 637 mmHg 84%
    18:00 +6°C° 0.9 mm 1 m/S 637 mmHg 92%
    19:00 +6°C° 1.2 mm 1 m/S 637 mmHg 94%
    20:00 +6°C° 1.2 mm 1 m/S 637 mmHg 95%
    21:00 +6°C° 1.2 mm 1 m/S 637 mmHg 96%
    22:00 +6°C° 1.2 mm 1 m/S 637 mmHg 96%
    23:00 +4°C° 1.2 mm 0 m/S 637 mmHg 95%
    Mehr zeigen